1514509200.05,27494,5.94,71646.3,-8.17,-9.01,-9.01,0,*52
1514509201.26,27495,5.94,71644.5,-8.17,-9.01,-9.01,0,*53
1514509202.46,27496,5.94,71644.0,-8.17,-8.97,-8.97,0,*50
1514509203.69,27497,5.94,71648.0,-8.19,-9.01,-9.01,0,*5F
1514509204.9,27498,5.94,71642.5,-8.17,-9.01,-9.01,0,*5E
1514509206.11,27499,5.94,71644.0,-8.17,-9.01,-9.01,0,*5F
1514509207.31,27500,5.94,71644.3,-8.17,-9.01,-8.97,0,*50
1514509208.51,27501,5.94,71644.8,-8.17,-8.97,-9.01,0,*51
1514509209.71,27502,5.94,71644.5,-8.17,-8.97,-9.01,0,*52
1514509210.94,27503,5.94,71644.0,-8.19,-8.97,-8.97,0,*53
1514509212.14,27504,5.94,71650.3,-8.17,-9.01,-8.97,0,*54
1514509213.34,27505,5.94,71648.5,-8.17,-8.97,-8.97,0,*5B
1514509214.56,27506,5.94,71648.3,-8.19,-8.97,-8.97,0,*56
1514509215.76,27507,5.94,71648.5,-8.17,-8.97,-9.01,0,*57
1514509216.96,27508,5.94,71648.0,-8.17,-9.01,-8.97,0,*58
1514509218.17,27509,5.94,71652.8,-8.17,-9.01,-8.97,0,*59
1514509219.37,27510,5.94,71656.5,-8.17,-8.97,-9.01,0,*51
1514509220.57,27511,5.94,71654.0,-8.17,-8.97,-9.01,0,*50
1514509221.78,27512,5.94,71648.8,-8.17,-9.01,-9.01,0,*5D
1514509222.98,27513,5.94,71644.5,-8.17,-8.97,-8.97,0,*5C
1514509224.18,27514,5.94,71648.0,-8.17,-8.97,-8.97,0,*5B
1514509225.38,27515,5.94,71644.3,-8.17,-8.97,-9.01,0,*54
1514509226.6,27516,5.94,71646.3,-8.19,-8.97,-9.01,0,*59
1514509227.81,27517,5.94,71646.3,-8.17,-9.01,-8.97,0,*56
1514509229.01,27518,5.94,71648.0,-8.17,-9.01,-8.97,0,*59
1514509230.22,27519,5.94,71650.0,-8.17,-9.01,-9.01,0,*56
1514509231.43,27520,5.94,71650.8,-8.17,-9.01,-9.01,0,*5C
1514509232.64,27521,5.94,71648.3,-8.17,-9.01,-9.01,0,*5D
1514509233.84,27522,5.94,71650.3,-8.17,-8.97,-9.01,0,*50
1514509235.05,27523,5.94,71650.0,-8.17,-9.01,-9.01,0,*5F
1514509236.26,27524,5.94,71648.5,-8.17,-9.01,-9.01,0,*58
1514509237.48,27525,5.94,71650.5,-8.19,-9.05,-9.01,0,*53
1514509238.69,27526,5.94,71644.0,-8.17,-9.01,-9.01,0,*5A
1514509239.9,27527,5.94,71644.0,-8.17,-9.01,-9.01,0,*5B
1514509241.11,27528,5.94,71644.0,-8.17,-9.01,-9.01,0,*54
1514509242.32,27529,5.94,71646.3,-8.17,-9.01,-8.97,0,*5B
1514509243.55,27530,5.94,71644.8,-8.19,-9.01,-9.01,0,*53
1514509244.78,27531,5.94,71646.5,-8.19,-9.01,-9.01,0,*52
1514509246.01,27532,5.94,71644.8,-8.19,-9.01,-8.97,0,*5F
1514509247.22,27533,5.94,71648.0,-8.17,-9.01,-9.01,0,*5E
1514509248.45,27534,5.94,71652.0,-8.19,-9.01,-9.05,0,*53
1514509249.68,27535,5.94,71648.3,-8.19,-9.01,-9.05,0,*52
1514509250.91,27536,5.94,71648.5,-8.19,-9.01,-9.01,0,*55
1514509252.14,27537,5.94,71650.3,-8.19,-9.01,-9.01,0,*54
1514509253.38,27538,5.94,71652.0,-8.19,-9.01,-9.01,0,*5B
1514509254.6,27539,5.94,71654.3,-8.19,-8.97,-8.97,0,*5A
1514509255.82,27540,5.94,71652.0,-8.19,-9.01,-8.97,0,*5A
1514509257.03,27541,5.94,71652.0,-8.17,-9.01,-9.01,0,*5B
1514509258.26,27542,5.94,71654.3,-8.19,-8.97,-8.97,0,*56
1514509259.46,27543,5.94,71648.5,-8.17,-9.01,-8.97,0,*57
1514509260.69,27544,5.94,71650.3,-8.19,-9.01,-8.97,0,*5E
1514509261.92,27545,5.94,71650.0,-8.19,-9.01,-9.01,0,*51
1514509263.15,27546,5.94,71652.3,-8.19,-9.01,-8.97,0,*5C
1514509264.38,27547,5.94,71650.8,-8.19,-9.01,-9.01,0,*53
1514509265.61,27548,5.94,71648.5,-8.19,-9.01,-9.01,0,*5C
1514509266.82,27549,5.94,71652.5,-8.17,-9.01,-8.97,0,*5D
1514509268.04,27550,5.94,71652.8,-8.19,-8.97,-8.97,0,*55
1514509269.26,27551,5.94,71646.5,-8.19,-8.97,-8.97,0,*54
1514509270.49,27552,5.94,71648.3,-8.19,-9.01,-8.97,0,*59
1514509271.72,27553,5.94,71648.5,-8.19,-9.01,-8.97,0,*58
1514509272.93,27554,5.94,71646.0,-8.17,-9.01,-9.01,0,*5F
1514509274.15,27555,5.94,71648.3,-8.19,-9.01,-8.97,0,*5E
1514509275.39,27556,5.94,71650.5,-8.19,-9.01,-9.01,0,*53
1514509276.62,27557,5.94,71652.0,-8.19,-9.01,-9.01,0,*52
1514509277.85,27558,5.94,71648.8,-8.19,-9.01,-8.97,0,*53
1514509279.06,27559,5.94,71652.8,-8.17,-9.01,-9.01,0,*52
1514509280.29,27560,5.94,71654.0,-8.19,-9.01,-9.01,0,*56
1514509281.52,27561,5.94,71654.0,-8.19,-9.01,-9.01,0,*57
1514509282.75,27562,5.94,71648.0,-8.19,-9.01,-9.05,0,*50
1514509283.98,27563,5.94,71650.0,-8.19,-9.01,-9.05,0,*51
1514509285.22,27564,5.94,71650.5,-8.19,-9.01,-9.01,0,*52
1514509286.45,27565,5.94,71648.0,-8.19,-9.05,-9.01,0,*57
1514509287.67,27566,5.94,71648.3,-8.19,-8.97,-9.01,0,*5E
1514509288.89,27567,5.94,71648.8,-8.19,-8.97,-8.97,0,*51
1514509290.12,27568,5.94,71652.8,-8.19,-9.01,-8.89,0,*5F
1514509291.35,27569,5.94,71648.0,-8.19,-9.01,-8.97,0,*51
1514509292.58,27570,5.94,71648.8,-8.19,-8.97,-9.01,0,*59
1514509293.81,27571,5.94,71648.0,-8.19,-9.01,-9.01,0,*56
1514509295.03,27572,5.94,71648.0,-8.19,-8.97,-8.97,0,*55
1514509296.25,27573,5.94,71646.0,-8.19,-8.97,-8.97,0,*54
1514509297.48,27574,5.94,71648.3,-8.19,-9.01,-8.97,0,*5D
1514509298.71,27575,5.94,71650.8,-8.19,-8.97,-9.01,0,*5C
1514509299.93,27576,5.94,71646.5,-8.19,-8.97,-8.97,0,*51
1514509301.13,27577,5.94,71650.5,-8.17,-9.01,-8.97,0,*50
1514509302.36,27578,5.94,71646.3,-8.19,-8.97,-8.97,0,*5F
1514509303.58,27579,5.94,71644.3,-8.19,-8.97,-8.97,0,*5E
1514509304.8,27580,5.94,71650.5,-8.19,-8.97,-8.97,0,*58
1514509306.0,27581,5.94,71656.0,-8.17,-8.97,-8.97,0,*57
1514509307.22,27582,5.94,71652.5,-8.19,-8.97,-8.97,0,*5A
1514509308.44,27583,5.94,71656.0,-8.19,-8.97,-8.97,0,*5B
1514509309.66,27584,5.94,71650.5,-8.19,-8.97,-8.97,0,*5C
1514509310.89,27585,5.94,71652.3,-8.19,-8.97,-8.89,0,*52
1514509312.11,27586,5.94,71652.0,-8.19,-8.97,-8.89,0,*51
1514509313.34,27587,5.94,71652.0,-8.19,-8.89,-8.85,0,*53
1514509314.57,27588,5.94,71652.0,-8.19,-8.97,-9.01,0,*5E
1514509315.8,27589,5.94,71652.8,-8.19,-8.89,-8.97,0,*5E
1514509317.02,27590,5.94,71654.8,-8.19,-8.97,-8.89,0,*56
1514509318.25,27591,5.94,71648.0,-8.19,-8.89,-8.89,0,*58
1514509319.46,27592,5.94,71650.5,-8.17,-8.89,-8.97,0,*5A
1514509320.68,27593,5.94,71650.5,-8.19,-8.97,-8.97,0,*5A
1514509321.89,27594,5.94,71654.3,-8.21,-9.01,-9.05,0,*52
1514509323.11,27595,5.94,71648.3,-8.19,-8.97,-8.97,0,*5C
1514509324.33,27596,5.94,71652.0,-8.19,-8.97,-8.97,0,*5F
1514509325.56,27597,5.94,71652.3,-8.19,-9.01,-9.01,0,*5E
1514509326.78,27598,5.94,71650.5,-8.19,-8.97,-8.97,0,*51
1514509328.01,27599,5.94,71654.5,-8.19,-9.01,-8.97,0,*5E
1514509329.24,27600,5.94,71650.5,-8.19,-9.01,-8.97,0,*5D
1514509330.47,27601,5.94,71650.5,-8.19,-9.01,-8.97,0,*5C
1514509331.67,27602,5.94,71654.3,-8.17,-8.97,-8.97,0,*5F
1514509332.9,27603,5.94,71650.0,-8.19,-9.01,-9.01,0,*50
1514509334.12,27604,5.94,71650.3,-8.19,-8.97,-9.01,0,*59
1514509335.35,27605,5.94,71648.8,-8.19,-8.97,-8.97,0,*56
1514509336.56,27606,5.94,71652.8,-8.21,-9.01,-9.01,0,*5E
1514509337.77,27607,5.94,71648.0,-8.21,-9.01,-9.01,0,*5F
1514509338.98,27608,5.94,71650.3,-8.21,-9.01,-8.89,0,*51
1514509340.2,27609,5.94,71652.0,-8.19,-8.97,-8.89,0,*55
1514509341.42,27610,5.94,71650.3,-8.19,-8.97,-8.97,0,*52
1514509342.65,27611,5.94,71654.3,-8.19,-9.01,-8.97,0,*5D
1514509343.87,27612,5.94,71656.0,-8.19,-8.97,-8.97,0,*50
1514509345.1,27613,5.94,71656.3,-8.19,-8.97,-8.89,0,*5E
1514509346.32,27614,5.94,71652.5,-8.19,-8.97,-8.89,0,*59
1514509347.53,27615,5.94,71656.0,-8.17,-8.89,-8.89,0,*59
1514509348.74,27616,5.94,71656.3,-8.17,-9.01,-8.97,0,*54
1514509349.94,27617,5.94,71652.3,-8.21,-9.05,-9.01,0,*5A
1514509351.17,27618,5.94,71654.5,-8.19,-8.97,-8.89,0,*55
1514509352.4,27619,5.94,71654.3,-8.19,-8.89,-8.89,0,*5B
1514509353.61,27620,5.94,71650.0,-8.21,-8.93,-8.93,0,*5A
1514509354.81,27621,5.94,71652.3,-8.21,-9.05,-8.93,0,*55
1514509356.04,27622,5.94,71646.8,-8.19,-8.89,-8.89,0,*53
1514509357.26,27623,5.94,71650.0,-8.19,-8.97,-8.97,0,*52
1514509358.47,27624,5.94,71648.0,-8.21,-9.01,-9.01,0,*5E
1514509359.68,27625,5.94,71644.0,-8.21,-9.01,-8.93,0,*55
1514509360.89,27626,5.94,71642.0,-8.21,-9.01,-8.93,0,*56
1514509362.12,27627,5.94,71646.3,-8.19,-8.97,-9.01,0,*58
1514509363.34,27628,5.94,71644.3,-8.19,-8.97,-8.97,0,*59
1514509364.56,27629,5.94,71644.0,-8.19,-8.97,-9.01,0,*56
1514509365.77,27630,5.94,71642.5,-8.21,-9.05,-9.01,0,*5F
1514509366.97,27631,5.94,71646.3,-8.21,-9.05,-9.05,0,*5A
1514509368.2,27632,5.94,71644.3,-8.19,-8.97,-8.97,0,*52
1514509369.42,27633,5.94,71646.5,-8.19,-9.01,-8.97,0,*5D
1514509370.65,27634,5.94,71646.5,-8.19,-8.97,-8.97,0,*54
1514509371.87,27635,5.94,71650.5,-8.19,-8.97,-9.01,0,*5B
1514509373.1,27636,5.94,71650.0,-8.19,-8.97,-9.01,0,*58
1514509374.32,27637,5.94,71650.0,-8.19,-8.97,-8.97,0,*57
1514509375.55,27638,5.94,71642.0,-8.19,-9.01,-8.97,0,*56
1514509376.76,27639,5.94,71644.5,-8.21,-9.01,-9.01,0,*52
1514509377.97,27640,5.94,71644.8,-8.21,-9.01,-9.05,0,*58
1514509379.19,27641,5.94,71646.0,-8.19,-8.97,-8.97,0,*56
1514509380.4,27642,5.94,71650.3,-8.21,-9.01,-9.05,0,*5A
1514509381.63,27643,5.94,71646.5,-8.23,-9.05,-9.01,0,*59
1514509382.84,27644,5.94,71644.5,-8.21,-9.01,-9.01,0,*58
1514509384.05,27645,5.94,71646.0,-8.21,-9.01,-9.05,0,*5D
1514509385.26,27646,5.94,71644.8,-8.21,-9.01,-9.01,0,*5A
1514509386.46,27647,5.94,71642.5,-8.21,-9.05,-9.05,0,*5B
1514509387.67,27648,5.94,71640.3,-8.21,-9.01,-9.01,0,*54
1514509388.88,27649,5.94,71646.8,-8.21,-9.01,-9.01,0,*55
1514509390.09,27650,5.94,71650.3,-8.21,-9.01,-9.05,0,*59
1514509391.3,27651,5.94,71644.0,-8.21,-9.01,-9.05,0,*58
1514509392.53,27652,5.94,71646.8,-8.19,-9.01,-9.01,0,*54
1514509393.75,27653,5.94,71650.0,-8.19,-8.97,-8.97,0,*55
1514509394.98,27654,5.94,71648.3,-8.19,-8.97,-8.97,0,*52
1514509396.19,27655,5.94,71644.5,-8.21,-9.01,-9.01,0,*58
1514509397.4,27656,5.94,71642.8,-8.21,-9.01,-9.01,0,*5B
1514509398.61,27657,5.94,71642.5,-8.21,-9.01,-9.01,0,*5A
1514509399.82,27658,5.94,71642.8,-8.21,-9.01,-9.05,0,*51
1514509401.02,27659,5.94,71640.3,-8.21,-9.05,-9.05,0,*54
1514509402.23,27660,5.94,71638.5,-8.21,-9.01,-9.01,0,*5E
1514509403.44,27661,5.94,71640.8,-8.21,-9.05,-9.01,0,*5B
1514509404.65,27662,5.94,71638.0,-8.21,-9.01,-9.05,0,*58
1514509405.88,27663,5.94,71642.8,-8.23,-9.05,-9.01,0,*5B
1514509407.09,27664,5.94,71642.0,-8.21,-9.05,-9.01,0,*5E
1514509408.29,27665,5.94,71644.0,-8.21,-9.05,-9.01,0,*5F
1514509409.5,27666,5.94,71644.0,-8.21,-9.01,-9.05,0,*5C
1514509410.71,27667,5.94,71646.5,-8.21,-9.05,-9.05,0,*59
1514509411.92,27668,5.94,71648.0,-8.21,-9.01,-9.01,0,*56
1514509413.12,27669,5.94,71646.8,-8.21,-9.05,-9.05,0,*57
1514509414.35,27670,5.94,71650.0,-8.23,-9.05,-9.05,0,*5D
1514509415.58,27671,5.94,71652.0,-8.19,-8.89,-8.89,0,*55
1514509416.8,27672,5.94,71652.0,-8.19,-8.97,-8.97,0,*56
1514509418.01,27673,5.94,71654.5,-8.21,-9.05,-9.01,0,*58
1514509419.22,27674,5.94,71650.5,-8.21,-9.05,-9.01,0,*5F
1514509420.45,27675,5.94,71650.8,-8.23,-9.05,-9.05,0,*58
1514509421.68,27676,5.94,71648.0,-8.23,-9.01,-8.93,0,*51
1514509422.89,27677,5.94,71648.8,-8.21,-9.01,-8.93,0,*52
1514509424.1,27678,5.94,71648.3,-8.21,-9.01,-9.01,0,*57
1514509425.33,27679,5.94,71652.5,-8.23,-9.01,-9.01,0,*54
1514509426.54,27680,5.94,71654.5,-8.21,-9.01,-9.05,0,*54
1514509427.75,27681,5.94,71648.0,-8.21,-9.01,-9.01,0,*51
1514509428.96,27682,5.94,71648.5,-8.21,-9.01,-9.01,0,*52
1514509430.17,27683,5.94,71650.3,-8.21,-9.01,-9.05,0,*57
1514509431.38,27684,5.94,71650.8,-8.21,-9.01,-9.01,0,*54
1514509432.59,27685,5.94,71648.3,-8.21,-9.01,-9.05,0,*51
1514509433.8,27686,5.94,71654.0,-8.21,-9.01,-9.05,0,*52
1514509435.01,27687,5.94,71648.0,-8.21,-9.01,-9.01,0,*57
1514509436.22,27688,5.94,71644.3,-8.21,-9.05,-9.01,0,*5C
1514509437.44,27689,5.94,71646.0,-8.23,-9.05,-9.05,0,*5B
1514509438.65,27690,5.94,71640.8,-8.21,-9.05,-9.01,0,*55
1514509439.86,27691,5.94,71644.0,-8.21,-9.05,-9.05,0,*50
1514509441.06,27692,5.94,71644.3,-8.21,-9.01,-9.05,0,*57
1514509442.27,27693,5.94,71642.8,-8.21,-9.01,-9.01,0,*52
1514509443.48,27694,5.94,71644.5,-8.21,-9.01,-9.05,0,*51
1514509444.69,27695,5.94,71644.0,-8.21,-9.05,-9.05,0,*54
1514509445.91,27696,5.94,71640.5,-8.23,-9.05,-9.05,0,*55
1514509447.12,27697,5.94,71644.3,-8.21,-9.05,-9.01,0,*52
1514509448.33,27698,5.94,71642.0,-8.21,-9.05,-9.01,0,*5D
1514509449.54,27699,5.94,71644.5,-8.21,-9.05,-9.05,0,*58
1514509450.76,27700,5.94,71642.5,-8.23,-9.05,-9.05,0,*5B
1514509451.99,27701,5.94,71640.5,-8.23,-9.01,-9.05,0,*5E
1514509453.2,27702,5.94,71640.8,-8.21,-9.01,-9.05,0,*5F
1514509454.43,27703,5.94,71638.5,-8.23,-9.05,-9.05,0,*58
1514509455.64,27704,5.94,71642.8,-8.21,-9.01,-9.05,0,*59
1514509456.87,27705,5.94,71644.5,-8.23,-9.01,-9.01,0,*5E
1514509458.08,27706,5.94,71640.0,-8.21,-9.05,-9.01,0,*5B
1514509459.31,27707,5.94,71642.0,-8.23,-9.01,-9.05,0,*58
1514509460.52,27708,5.94,71642.3,-8.21,-9.05,-9.01,0,*55
1514509461.75,27709,5.94,71644.8,-8.23,-9.01,-9.05,0,*56
1514509462.98,27710,5.94,71640.8,-8.23,-9.05,-9.05,0,*5A
1514509464.18,27711,5.94,71646.3,-8.21,-9.05,-9.05,0,*59
1514509465.41,27712,5.94,71640.0,-8.23,-8.93,-8.93,0,*58
1514509466.64,27713,5.94,71640.5,-8.23,-9.05,-8.93,0,*57
1514509467.85,27714,5.94,71642.3,-8.21,-9.01,-9.01,0,*5C
1514509469.09,27715,5.94,71642.3,-8.23,-9.01,-9.01,0,*5F
1514509470.32,27716,5.94,71644.8,-8.23,-9.05,-9.01,0,*58
1514509471.55,27717,5.94,71646.5,-8.23,-9.01,-9.05,0,*59
1514509472.76,27718,5.94,71644.8,-8.21,-9.01,-9.05,0,*54
1514509473.96,27719,5.94,71650.0,-8.21,-9.01,-9.05,0,*55
1514509475.2,27720,5.94,71644.3,-8.23,-9.01,-9.05,0,*5D
1514509476.43,27721,5.94,71648.5,-8.23,-9.05,-9.01,0,*5C
1514509477.63,27722,5.94,71650.3,-8.21,-9.01,-9.05,0,*5D
1514509478.87,27723,5.94,71650.8,-8.23,-9.01,-9.01,0,*5A
1514509480.1,27724,5.94,71650.8,-8.23,-9.05,-9.01,0,*59
1514509481.33,27725,5.94,71644.0,-8.23,-9.01,-9.05,0,*58
1514509482.54,27726,5.94,71644.8,-8.21,-9.01,-9.01,0,*5D
1514509483.77,27727,5.94,71648.5,-8.23,-9.01,-9.05,0,*5A
1514509484.98,27728,5.94,71648.5,-8.21,-9.05,-9.05,0,*53
1514509486.19,27729,5.94,71648.5,-8.21,-9.05,-9.01,0,*56
1514509487.4,27730,5.94,71652.3,-8.21,-9.01,-9.01,0,*5A
1514509488.63,27731,5.94,71650.3,-8.23,-9.05,-9.05,0,*59
1514509489.86,27732,5.94,71650.8,-8.23,-9.01,-9.01,0,*5A
1514509491.09,27733,5.94,71644.8,-8.23,-9.05,-9.01,0,*5F
1514509492.32,27734,5.94,71648.8,-8.23,-9.05,-9.05,0,*5C
1514509493.55,27735,5.94,71648.5,-8.23,-9.01,-9.01,0,*5D
1514509494.78,27736,5.94,71646.0,-8.23,-9.05,-9.01,0,*5A
1514509496.01,27737,5.94,71646.5,-8.23,-9.01,-9.05,0,*5B
1514509497.25,27738,5.94,71648.0,-8.23,-9.01,-9.05,0,*54
1514509498.46,27739,5.94,71648.3,-8.21,-9.01,-9.01,0,*53
1514509499.69,27740,5.94,71650.0,-8.23,-9.05,-9.01,0,*5B
1514509500.92,27741,5.94,71644.5,-8.23,-9.05,-9.01,0,*5A
1514509502.15,27742,5.94,71650.5,-8.23,-9.01,-9.01,0,*5D
1514509503.39,27743,5.94,71646.8,-8.23,-9.05,-9.01,0,*58
1514509504.62,27744,5.94,71648.8,-8.23,-9.01,-9.01,0,*5B
1514509505.85,27745,5.94,71650.8,-8.23,-9.05,-9.01,0,*5E
1514509507.09,27746,5.94,71648.0,-8.23,-9.01,-9.01,0,*59
1514509508.32,27747,5.94,71650.5,-8.23,-9.01,-9.01,0,*58
1514509509.53,27748,5.94,71654.5,-8.21,-9.01,-9.05,0,*51
1514509510.76,27749,5.94,71650.5,-8.23,-9.01,-9.05,0,*52
1514509511.99,27750,5.94,71652.8,-8.23,-9.05,-9.01,0,*5A
1514509513.22,27751,5.94,71652.0,-8.23,-9.05,-9.05,0,*5F
1514509514.45,27752,5.94,71654.5,-8.23,-9.01,-9.01,0,*5C
1514509515.68,27753,5.94,71652.0,-8.23,-9.05,-9.01,0,*59
1514509516.91,27754,5.94,71648.5,-8.23,-9.01,-9.05,0,*5E
1514509518.13,27755,5.94,71654.3,-8.21,-9.01,-9.01,0,*59
1514509519.36,27756,5.94,71650.0,-8.23,-9.01,-8.93,0,*52
1514509520.59,27757,5.94,71644.5,-8.23,-9.01,-8.93,0,*53
1514509521.82,27758,5.94,71644.3,-8.23,-9.01,-8.93,0,*5C
1514509523.05,27759,5.94,71648.5,-8.23,-9.01,-9.01,0,*57
1514509524.28,27760,5.94,71644.5,-8.23,-9.05,-9.05,0,*5D
1514509525.49,27761,5.94,71644.3,-8.21,-9.05,-9.01,0,*5A
1514509526.72,27762,5.94,71644.5,-8.25,-9.05,-9.11,0,*5C
1514509527.97,27763,5.94,71640.0,-8.25,-9.11,-9.11,0,*58
1514509529.22,27764,5.94,71644.3,-8.25,-9.11,-9.11,0,*5F
1514509530.45,27765,5.94,71642.8,-8.23,-9.05,-9.05,0,*58
1514509531.68,27766,5.94,71640.5,-8.23,-9.05,-9.05,0,*5B
1514509532.93,27767,5.94,71640.0,-8.25,-9.11,-9.11,0,*5C
1514509534.19,27768,5.94,71640.0,-8.25,-9.11,-9.11,0,*53
1514509535.42,27769,5.94,71644.8,-8.23,-9.05,-9.05,0,*54
1514509536.64,27770,5.94,71646.8,-8.23,-9.05,-9.05,0,*5C
1514509537.88,27771,5.94,71646.0,-8.23,-9.01,-9.01,0,*5D
1514509539.11,27772,5.94,71646.3,-8.23,-9.05,-9.01,0,*5A
1514509540.34,27773,5.94,71646.5,-8.23,-9.01,-9.05,0,*5B
1514509541.57,27774,5.94,71648.3,-8.23,-9.01,-9.05,0,*5C
1514509542.78,27775,5.94,71654.5,-8.25,-9.01,-9.05,0,*5B
1514509543.98,27776,5.94,71650.8,-8.25,-9.05,-9.05,0,*5C
1514509545.21,27777,5.94,71648.5,-8.23,-9.01,-9.05,0,*5F
1514509546.44,27778,5.94,71650.3,-8.23,-8.93,-9.01,0,*5E
1514509547.64,27779,5.94,71652.0,-8.25,-8.97,-9.05,0,*59
1514509548.84,27780,5.94,71644.5,-8.25,-8.97,-9.05,0,*5F
1514509550.04,27781,5.94,71648.5,-8.21,-9.05,-9.05,0,*50
1514509551.27,27782,5.94,71650.8,-8.25,-9.11,-9.05,0,*52
1514509552.5,27783,5.94,71652.0,-8.23,-9.05,-9.05,0,*50
1514509553.73,27784,5.94,71648.3,-8.25,-9.05,-9.11,0,*54
1514509554.98,27785,5.94,71646.5,-8.25,-9.11,-9.11,0,*50
1514509556.21,27786,5.94,71644.5,-8.25,-9.05,-9.11,0,*56
1514509557.43,27787,5.94,71650.5,-8.25,-9.11,-9.05,0,*57
1514509558.64,27788,5.94,71652.8,-8.25,-9.05,-9.05,0,*5D
1514509559.84,27789,5.94,71654.8,-8.25,-9.05,-9.05,0,*5C
1514509561.07,27790,5.94,71652.0,-8.25,-9.11,-9.05,0,*51
1514509562.27,27791,5.94,71652.8,-8.25,-9.05,-9.05,0,*55
1514509563.5,27792,5.94,71658.8,-8.25,-9.05,-9.11,0,*53
1514509564.7,27793,5.94,71654.5,-8.25,-9.05,-9.05,0,*57
1514509565.92,27794,5.94,71652.3,-8.25,-9.05,-9.11,0,*55
1514509567.18,27795,5.94,71652.5,-8.25,-9.11,-9.11,0,*51
1514509568.46,27796,5.94,71654.3,-8.27,-9.11,-9.11,0,*50
1514509569.71,27797,5.94,71648.0,-8.25,-9.11,-9.11,0,*53
1514509570.96,27798,5.94,71650.3,-8.25,-9.11,-9.11,0,*5C
1514509572.22,27799,5.94,71650.3,-8.25,-9.11,-9.11,0,*5D
1514509573.42,27800,5.94,71646.5,-8.25,-9.05,-9.05,0,*52
1514509574.62,27801,5.94,71646.3,-8.25,-9.05,-9.05,0,*53
1514509575.88,27802,5.94,71642.3,-8.25,-9.11,-9.11,0,*50
1514509577.1,27803,5.94,71646.0,-8.25,-9.05,-9.11,0,*54
1514509578.36,27804,5.94,71644.3,-8.25,-9.11,-9.11,0,*56
1514509579.58,27805,5.94,71646.5,-8.25,-9.11,-9.05,0,*52
1514509580.81,27806,5.94,71650.5,-8.25,-9.11,-9.05,0,*51
1514509582.07,27807,5.94,71648.0,-8.25,-9.11,-9.11,0,*55
1514509583.32,27808,5.94,71648.8,-8.25,-9.11,-9.11,0,*5A
1514509584.58,27809,5.94,71654.3,-8.25,-9.11,-9.11,0,*5B
1514509585.85,27810,5.94,71652.0,-8.27,-9.11,-9.15,0,*55
1514509587.1,27811,5.94,71642.8,-8.27,-9.11,-9.23,0,*51
1514509588.38,27812,5.94,71642.3,-8.27,-9.15,-9.15,0,*53
1514509589.65,27813,5.94,71642.5,-8.27,-9.15,-9.15,0,*52
1514509590.91,27814,5.94,71642.8,-8.25,-9.15,-9.15,0,*57
1514509592.18,27815,5.94,71648.3,-8.27,-9.15,-9.15,0,*54
1514509593.46,27816,5.94,71648.5,-8.27,-9.15,-9.15,0,*57
1514509594.71,27817,5.94,71646.3,-8.27,-9.23,-9.15,0,*53
1514509595.96,27818,5.94,71646.8,-8.25,-9.15,-9.15,0,*5B
1514509597.23,27819,5.94,71650.3,-8.27,-9.15,-9.15,0,*58
1514509598.49,27820,5.94,71648.5,-8.25,-9.15,-9.15,0,*50
1514509599.77,27821,5.94,71650.0,-8.27,-9.15,-9.15,0,*53
1514509601.04,27822,5.94,71648.0,-8.27,-9.15,-9.15,0,*50
1514509602.29,27823,5.94,71656.5,-8.25,-9.15,-9.15,0,*53
1514509603.57,27824,5.94,71656.8,-8.27,-9.15,-9.15,0,*56
1514509604.85,27825,5.94,71654.0,-8.27,-9.15,-9.15,0,*57
1514509606.12,27826,5.94,71656.5,-8.27,-9.15,-9.15,0,*54
1514509607.37,27827,5.94,71652.3,-8.27,-9.23,-9.15,0,*50
1514509608.65,27828,5.94,71654.0,-8.27,-9.15,-9.15,0,*5A
1514509609.9,27829,5.94,71656.0,-8.25,-9.15,-9.15,0,*59
1514509611.18,27830,5.94,71654.8,-8.27,-9.15,-9.11,0,*57
1514509612.46,27831,5.94,71652.3,-8.27,-9.15,-9.11,0,*56
1514509613.71,27832,5.94,71650.8,-8.27,-9.15,-9.05,0,*50
1514509614.99,27833,5.94,71648.0,-8.27,-9.11,-9.11,0,*50
1514509616.27,27834,5.94,71650.5,-8.27,-9.15,-9.11,0,*53
1514509617.55,27835,5.94,71644.5,-8.27,-9.15,-9.11,0,*52
1514509618.83,27836,5.94,71644.3,-8.27,-9.15,-9.11,0,*51
1514509620.08,27837,5.94,71638.5,-8.27,-9.23,-9.11,0,*55
1514509621.31,27838,5.94,71636.8,-8.29,-9.19,-9.15,0,*59
1514509622.58,27839,5.94,71642.8,-8.27,-9.15,-9.11,0,*5E
1514509623.86,27840,5.94,71634.0,-8.27,-9.15,-9.15,0,*54
1514509625.14,27841,5.94,71638.3,-8.27,-9.15,-9.15,0,*55
1514509626.38,27842,5.94,71636.8,-8.27,-9.23,-9.15,0,*53
1514509627.63,27843,5.94,71642.3,-8.27,-9.15,-9.23,0,*52
1514509628.84,27844,5.94,71636.8,-8.29,-9.27,-9.27,0,*5E
1514509630.04,27845,5.94,71638.3,-8.29,-9.27,-9.27,0,*5F
1514509631.28,27846,5.94,71636.3,-8.27,-9.23,-9.15,0,*57
1514509632.49,27847,5.94,71636.5,-8.29,-9.19,-9.27,0,*50
1514509633.69,27848,5.94,71638.0,-8.29,-9.19,-9.27,0,*5F
1514509634.89,27849,5.94,71642.0,-8.33,-9.27,-9.27,0,*58
1514509636.09,27850,5.94,71642.3,-8.29,-9.27,-9.27,0,*5B
1514509637.37,27851,5.94,71640.0,-8.27,-9.15,-9.15,0,*54
1514509638.57,27852,5.94,71646.0,-8.29,-9.19,-9.27,0,*54
1514509639.77,27853,5.94,71642.5,-8.29,-9.19,-9.19,0,*58
1514509640.97,27854,5.94,71642.5,-8.29,-9.19,-9.19,0,*5F
1514509642.17,27855,5.94,71640.5,-8.33,-9.19,-9.19,0,*55
1514509643.37,27856,5.94,71646.0,-8.29,-9.19,-9.19,0,*5D
1514509644.57,27857,5.94,71644.3,-8.29,-9.27,-9.27,0,*5C
1514509645.77,27858,5.94,71644.8,-8.29,-9.19,-9.19,0,*53
1514509646.97,27859,5.94,71646.3,-8.33,-9.27,-9.19,0,*54
1514509648.17,27860,5.94,71640.0,-8.29,-9.19,-9.19,0,*58
1514509649.37,27861,5.94,71642.0,-8.29,-9.19,-9.19,0,*59
1514509650.57,27862,5.94,71644.0,-8.29,-9.19,-9.19,0,*5A
1514509651.77,27863,5.94,71640.8,-8.33,-9.19,-9.19,0,*50
1514509652.97,27864,5.94,71638.3,-8.29,-9.19,-9.19,0,*5C
1514509654.17,27865,5.94,71642.5,-8.29,-9.19,-9.19,0,*5D
1514509655.37,27866,5.94,71640.3,-8.29,-9.19,-9.19,0,*5E
1514509656.57,27867,5.94,71642.5,-8.33,-9.27,-9.19,0,*59
1514509657.77,27868,5.94,71644.3,-8.33,-9.27,-9.19,0,*56
1514509658.97,27869,5.94,71644.3,-8.29,-9.19,-9.19,0,*51
1514509660.16,27870,5.94,71642.3,-8.33,-9.27,-9.19,0,*5F
1514509661.36,27871,5.94,71638.5,-8.33,-9.19,-9.19,0,*53
1514509662.56,27872,5.94,71640.8,-8.33,-9.19,-9.19,0,*50
1514509663.81,27873,5.94,71636.5,-8.33,-9.15,-9.15,0,*51
1514509665.07,27874,5.94,71638.0,-8.33,-9.15,-9.15,0,*56
1514509666.32,27875,5.94,71636.5,-8.29,-9.11,-9.15,0,*58
1514509667.58,27876,5.94,71638.0,-8.33,-9.15,-9.15,0,*54
1514509668.83,27877,5.94,71636.8,-8.33,-9.15,-9.15,0,*55
1514509670.09,27878,5.94,71642.8,-8.29,-9.15,-9.15,0,*51
1514509671.32,27879,5.94,71642.5,-8.29,-9.15,-9.19,0,*5C
1514509672.55,27880,5.94,71642.8,-8.29,-9.15,-9.19,0,*5A
1514509673.77,27881,5.94,71642.8,-8.35,-9.23,-9.23,0,*5A
1514509674.97,27882,5.94,71642.5,-8.33,-9.19,-9.19,0,*5F
1514509676.17,27883,5.94,71644.3,-8.33,-9.27,-9.19,0,*53
1514509677.36,27884,5.94,71642.0,-8.33,-9.19,-9.19,0,*59
1514509678.56,27885,5.94,71648.5,-8.33,-9.19,-9.19,0,*58
1514509679.76,27886,5.94,71644.5,-8.33,-9.19,-9.19,0,*5B
1514509680.98,27887,5.94,71646.3,-8.33,-9.19,-9.15,0,*56
1514509682.2,27888,5.94,71644.0,-8.33,-9.19,-9.15,0,*59
1514509683.43,27889,5.94,71646.8,-8.33,-9.19,-9.15,0,*58
1514509684.68,27890,5.94,71646.3,-8.33,-9.15,-9.15,0,*5C
1514509685.94,27891,5.94,71646.8,-8.29,-9.15,-9.15,0,*56
1514509687.16,27892,5.94,71644.5,-8.35,-9.19,-9.19,0,*58
1514509688.41,27893,5.94,71644.0,-8.35,-9.19,-9.15,0,*55
1514509689.66,27894,5.94,71640.5,-8.33,-9.11,-9.15,0,*5C
1514509690.92,27895,5.94,71642.8,-8.33,-9.15,-9.15,0,*59
1514509692.17,27896,5.94,71644.8,-8.33,-9.15,-9.15,0,*5A
1514509693.42,27897,5.94,71640.8,-8.33,-9.15,-9.15,0,*5B
1514509694.68,27898,5.94,71638.0,-8.33,-9.11,-9.15,0,*50
1514509695.93,27899,5.94,71642.0,-8.33,-9.11,-9.11,0,*55
1514509697.18,27900,5.94,71640.0,-8.35,-9.19,-9.15,0,*5E
1514509698.44,27901,5.94,71640.5,-8.33,-9.15,-9.11,0,*51
1514509699.69,27902,5.94,71642.3,-8.33,-9.11,-9.11,0,*56
1514509700.92,27903,5.94,71644.3,-8.33,-9.11,-9.01,0,*56
1514509702.18,27904,5.94,71642.8,-8.33,-9.15,-9.11,0,*54
1514509703.44,27905,5.94,71642.5,-8.33,-9.11,-9.11,0,*51
1514509704.69,27906,5.94,71642.8,-8.33,-9.11,-9.15,0,*56
1514509705.94,27907,5.94,71640.5,-8.33,-9.15,-9.15,0,*53
1514509707.2,27908,5.94,71644.8,-8.33,-9.15,-9.11,0,*58
1514509708.45,27909,5.94,71646.0,-8.33,-9.15,-9.15,0,*5D
1514509709.71,27910,5.94,71646.0,-8.33,-9.15,-9.15,0,*55
1514509710.96,27911,5.94,71640.0,-8.33,-9.15,-9.15,0,*54
1514509712.21,27912,5.94,71646.3,-8.33,-9.15,-9.15,0,*57
1514509713.47,27913,5.94,71642.5,-8.33,-9.15,-9.15,0,*56
1514509714.72,27914,5.94,71648.8,-8.33,-9.15,-9.15,0,*51